DateTimeUTC,F1_A11,F1_S11,BsB_S11,BsG_S11,BsR_S11,BbsB_S11,BbsG_S11,BbsR_S11,BaB_A11,BaG_A11,BaR_A11,Tu_S11,T_S11,Uu_S11,U_S11,P_S11,T1_A11
2021-12-27T12:00:00Z,00000200,21010000,,,,,,,-000.06,-000.63,-000.41,18.2,25.7,,00.0,0648.5,31.1
2021-12-27T12:01:00Z,00000200,21000000,,,,,,,-000.37,0000.23,0000.27,18.2,25.7,,00.0,0648.5,31.0
2021-12-27T12:02:00Z,00000200,21000000,,,,,,,-000.04,-000.15,-000.20,18.2,25.7,,00.0,0648.5,31.1
2021-12-27T12:03:00Z,00000200,61000000,,,,,,,0000.26,-000.31,0000.17,18.2,25.7,,00.0,0648.5,31.0
2021-12-27T12:04:00Z,00000200,41000000,0000.29,0000.09,0000.04,0000.50,0000.44,-000.31,-000.02,0000.51,0000.15,18.4,25.4,,00.0,0649.4,31.0
2021-12-27T12:05:00Z,00000200,01000000,-000.17,0000.27,-000.12,0000.49,0000.11,-000.13,0000.04,0000.04,0000.09,18.5,25.4,,00.0,0649.5,31.0
2021-12-27T12:06:00Z,00000200,01000000,0000.24,0000.26,0000.00,-000.03,0000.04,-000.22,-000.13,-000.36,-000.03,18.5,25.4,,00.0,0649.5,31.1
2021-12-27T12:07:00Z,00000200,01000000,-000.06,0000.08,0000.09,0000.40,-000.32,-000.15,0000.49,0000.80,0000.06,18.5,25.4,,00.0,0649.5,31.1
2021-12-27T12:08:00Z,00000200,01000000,0000.28,0000.36,0000.40,-000.57,-000.11,0000.07,0000.11,-000.03,0000.15,18.5,25.4,,00.0,0649.5,31.1
2021-12-27T12:09:00Z,00000200,01000000,0000.16,0000.63,0000.20,0000.92,0000.26,-000.15,0000.02,-000.01,0000.20,18.6,25.4,,00.0,0649.5,31.1
2021-12-27T12:10:00Z,00000200,01000000,0000.09,0000.23,0000.30,0000.06,-000.06,0000.06,0000.07,0000.25,0000.30,18.6,25.4,,00.0,0649.5,31.1
2021-12-27T12:11:00Z,00000200,01000000,0000.30,0000.14,0000.16,-000.36,0000.02,0000.03,0000.14,-000.12,-000.19,18.6,25.4,,00.0,0649.5,31.1
2021-12-27T12:12:00Z,00000200,01000000,0000.53,0000.33,-000.04,-000.12,0000.22,-000.03,0000.20,0000.36,0000.09,18.6,25.4,,00.0,0649.5,31.1
2021-12-27T12:13:00Z,00000200,01000000,-000.36,0000.34,0000.26,0000.67,-000.02,0000.02,0000.16,-000.06,0000.34,18.6,25.4,,00.0,0649.5,31.1
2021-12-27T12:14:00Z,00000200,01000000,0001.02,0000.66,0000.32,0000.55,0000.24,0000.05,0000.12,0000.50,0000.00,18.6,25.4,,00.0,0649.5,31.1
2021-12-27T12:15:00Z,00000200,01000000,-000.08,0000.12,-000.05,0001.16,0000.14,-000.11,-000.00,-000.23,0000.14,18.6,25.4,,00.0,0649.5,31.1
2021-12-27T12:16:00Z,00000200,01000000,0000.25,0000.26,0000.18,0000.74,0000.36,0000.26,0000.36,0000.63,-000.03,18.6,25.4,,00.0,0649.4,31.1
2021-12-27T12:17:00Z,00000200,01000000,-000.26,-000.01,0000.31,-000.20,0000.41,0000.04,-000.32,-000.63,-000.06,18.6,25.4,,00.0,0649.4,31.0
2021-12-27T12:18:00Z,00000200,01000000,-000.30,0000.15,0000.16,-000.28,0000.32,-000.19,0000.55,0000.22,-000.04,18.5,25.3,,00.0,0649.4,31.0
2021-12-27T12:19:00Z,00000200,01000000,0000.67,0000.02,0000.12,0000.51,0000.07,-000.04,0000.21,0000.47,0000.21,18.4,25.3,,00.0,0649.3,31.0
2021-12-27T12:20:00Z,00000200,01000000,0000.49,0000.36,0000.15,0000.31,0000.05,-000.20,-000.13,0000.10,0000.27,18.3,25.2,,00.0,0649.3,31.0
2021-12-27T12:21:00Z,00000200,01000000,0000.54,0000.08,0000.61,0000.34,0000.15,0000.11,0000.50,0000.07,0000.25,18.3,25.2,,00.0,0649.3,31.0
2021-12-27T12:22:00Z,00000200,01000000,-000.07,0000.28,0000.07,0001.02,0000.31,-000.11,0000.11,0000.08,-000.11,18.2,25.2,,00.0,0649.2,31.0
2021-12-27T12:23:00Z,00000200,01000000,0000.04,0000.13,-000.11,0000.26,0000.20,-000.29,0000.26,0000.49,0000.04,18.2,25.2,,00.0,0649.2,31.0
2021-12-27T12:24:00Z,00000200,01000000,-000.14,0000.21,-000.05,0000.24,0000.15,-000.16,0000.28,0000.06,0000.18,18.1,25.1,,00.0,0649.2,31.0
2021-12-27T12:25:00Z,00000200,01000000,-000.08,0000.49,0000.20,0000.49,-000.07,-000.27,-000.13,0000.12,-000.09,18.1,25.1,,00.0,0649.2,31.0
2021-12-27T12:26:00Z,00000200,01000000,0000.38,0000.26,-000.06,0000.18,0000.17,-000.22,0000.38,0000.13,0000.18,18.1,25.1,,00.0,0649.2,31.0
2021-12-27T12:27:00Z,00000200,01000000,0000.07,0000.17,-000.05,0000.42,0000.14,-000.01,0000.09,0000.09,0000.16,18.0,25.1,,00.0,0649.1,31.0
2021-12-27T12:28:00Z,00000200,01000000,0000.41,0000.56,-000.02,-000.14,-000.07,0000.07,-000.18,0000.22,0000.35,18.0,25.1,,00.0,0649.1,31.0
2021-12-27T12:29:00Z,00000200,01000000,0000.13,0000.31,0000.04,0000.91,0000.05,-000.06,0000.46,0000.20,-000.57,18.0,25.0,,00.0,0649.1,31.0
2021-12-27T12:30:00Z,00000200,01000000,-000.26,0000.26,0000.26,0000.11,0000.21,0000.22,0000.08,-000.17,0000.59,18.0,25.0,,00.0,0649.1,31.0
2021-12-27T12:31:00Z,00000200,01000000,0000.18,0000.39,0000.13,0000.14,-000.03,-000.07,0000.38,0000.54,0000.28,18.0,25.0,,00.0,0649.1,31.0
2021-12-27T12:32:00Z,00000200,01000000,0000.32,0000.05,0000.15,-000.03,0000.05,0000.34,0000.20,-000.22,0000.17,18.0,25.0,,00.0,0649.1,31.0
2021-12-27T12:33:00Z,00000200,01000000,0000.09,0000.22,0000.26,0000.63,-000.07,0000.08,0000.03,0000.14,-000.04,17.9,25.0,,00.0,0649.2,31.0
2021-12-27T12:34:00Z,00000200,01000000,-000.28,0000.41,0000.39,-000.01,0000.06,0000.25,-000.03,0000.08,0000.06,17.9,25.0,,00.0,0649.1,31.0
2021-12-27T12:35:00Z,00000200,01000000,0000.33,0000.19,-000.12,0000.22,0000.15,0000.22,0000.34,0000.25,-000.02,17.9,25.0,,00.0,0649.1,31.0
2021-12-27T12:36:00Z,00000200,01000000,0000.06,0000.07,-000.15,0000.78,0000.04,-000.42,0000.03,0000.32,0000.25,17.9,25.0,,00.0,0649.2,31.0
2021-12-27T12:37:00Z,00000200,01000000,-000.49,0000.22,-000.03,0000.38,0000.03,-000.22,0000.02,0000.23,0000.05,17.9,25.0,,00.0,0649.2,31.0
2021-12-27T12:38:00Z,00000200,01000000,0000.31,0000.33,0000.23,0000.22,-000.04,0000.08,0000.23,-000.17,-000.27,17.9,24.9,,00.0,0649.2,31.0
2021-12-27T12:39:00Z,00000200,01000000,0000.59,0000.30,0000.23,0000.83,0000.09,0000.11,0000.24,0000.07,0000.25,17.9,24.9,,00.0,0649.2,31.0
2021-12-27T12:40:00Z,00000200,01000000,0000.09,0000.50,0000.61,0000.70,0000.31,-000.23,0000.12,0000.29,0000.23,17.9,24.9,,00.0,0649.2,31.0
2021-12-27T12:41:00Z,00000200,01000000,-000.22,0000.23,0000.12,0000.01,0000.02,-000.03,0000.13,0000.23,-000.22,17.9,24.9,,00.0,0649.2,31.0
2021-12-27T12:42:00Z,00000200,01000000,0000.87,-000.08,-000.03,0000.81,-000.05,-000.35,0000.22,-000.17,0000.34,17.9,24.9,,00.0,0649.2,31.0
2021-12-27T12:43:00Z,00000200,01000000,0000.16,0000.60,0000.17,0001.03,0000.02,-000.35,0000.25,0000.15,-000.06,17.9,24.9,,00.0,0649.2,31.0
2021-12-27T12:44:00Z,00000200,01000000,-000.08,0000.35,0000.09,0000.04,0000.14,-000.29,-000.03,0000.59,0000.38,17.9,24.9,,00.0,0649.2,31.0
2021-12-27T12:45:00Z,00000200,01000000,-000.52,0000.13,0000.06,0000.57,0000.23,0000.03,0000.46,-000.05,0000.18,17.9,24.9,,00.0,0649.2,31.0
2021-12-27T12:46:00Z,00000200,01000000,-000.46,0000.11,0000.18,0000.25,0000.01,-000.21,-000.17,-000.26,-000.19,17.9,24.9,,00.0,0649.2,31.0
2021-12-27T12:47:00Z,00000200,01000000,0000.37,0000.16,-000.02,0000.14,0000.16,0000.09,0000.06,0000.40,0000.31,17.9,24.9,,00.0,0649.2,31.0
2021-12-27T12:48:00Z,00000200,01000000,-000.28,0000.23,0000.25,0000.48,0000.02,-000.40,0000.57,0000.12,0000.23,17.9,24.9,,00.0,0649.2,31.0
2021-12-27T12:49:00Z,00000200,01000000,0000.03,0000.37,0000.05,0000.31,-000.10,-000.06,-000.13,0000.04,0000.04,17.9,24.9,,00.0,0649.2,31.0
2021-12-27T12:50:00Z,00000200,01000000,0000.26,0000.26,0000.11,0000.32,0000.59,0000.25,0000.08,0000.31,-000.03,17.9,24.9,,00.0,0649.2,31.0
2021-12-27T12:51:00Z,00000200,01000000,-000.18,0000.13,-000.14,0000.70,0000.42,-000.21,-000.05,0000.25,-000.10,17.9,24.9,,00.0,0649.2,31.0
2021-12-27T12:52:00Z,00000200,01000000,0000.07,0000.31,-000.05,0000.60,-000.26,0000.04,0000.72,0000.11,0000.54,17.9,24.9,,00.0,0649.2,31.0
2021-12-27T12:53:00Z,00000200,01000000,-000.91,0000.32,0000.06,0000.35,0000.21,-000.17,0000.02,0000.06,0000.10,17.9,24.9,,00.0,0649.2,31.0
2021-12-27T12:54:00Z,00000200,01000000,-000.77,0000.39,0000.04,0000.40,0000.29,0000.08,0000.38,0000.49,0000.25,17.9,24.9,,00.0,0649.2,31.0
2021-12-27T12:55:00Z,00000200,01000000,0000.60,0000.10,0000.06,-000.16,-000.08,-000.17,0000.02,0000.12,0000.10,17.9,24.9,,00.0,0649.2,31.0
2021-12-27T12:56:00Z,00000200,01000000,0000.66,0000.74,0000.19,0001.03,0000.01,-000.09,0000.09,-000.01,0000.00,18.0,24.9,,00.0,0649.1,31.0
2021-12-27T12:57:00Z,00000200,41000000,,,,,,,0000.25,0000.57,-000.01,18.0,24.9,,00.0,0649.1,31.0
2021-12-27T12:58:00Z,00000200,61000000,,,,,,,0000.23,-000.24,0000.23,17.6,25.0,,00.0,0648.2,31.0
2021-12-27T12:59:00Z,00000200,21000000,,,,,,,-000.27,-000.03,-000.19,17.5,25.2,,00.0,0648.2,31.1
